This is the latest recevied weather packets stored in our database for station/object KE8KMM. If no packets are shown the sender has not sent any weather packets the latest 10 day(s).
| Time | Temp. | Humidity | Pressure | Rain* | Wind** | Luminosity | Snow |
|---|---|---|---|---|---|---|---|
| 1777814968 | 8.33° C | 70% | 1017.5 hPa | 0 mm | - | 394 W/m² | - |
| 1777814665 | 7.78° C | 70% | 1017.2 hPa | 0 mm | - | 365 W/m² | - |
| 1777814362 | 8.33° C | 71% | 1017.6 hPa | 0 mm | - | 344 W/m² | - |
| 1777814059 | 7.22° C | 74% | 1017.5 hPa | 0 mm | - | 312 W/m² | - |
| 1777813756 | 7.78° C | 71% | 1017.4 hPa | 0 mm | - | 286 W/m² | - |
| 1777813454 | 7.22° C | 73% | 1017.6 hPa | 0 mm | - | 298 W/m² | - |
| 1777813151 | 6.67° C | 75% | 1017.7 hPa | 0 mm | - | 282 W/m² | - |
| 1777812849 | 6.67° C | 74% | 1017.6 hPa | 0 mm | - | 239 W/m² | - |
| 1777812545 | 6.11° C | 76% | 1017.6 hPa | 0 mm | - | 244 W/m² | - |
| 1777812243 | 5.56° C | 77% | 1017.6 hPa | 0 mm | - | 224 W/m² | - |
| 1777811941 | 5.56° C | 81% | 1017.6 hPa | 0 mm | - | 214 W/m² | - |
| 1777811640 | 4.44° C | 83% | 1017.6 hPa | 0 mm | - | 197 W/m² | - |
| 1777811340 | 4.44° C | 84% | 1017.4 hPa | 1.78 mm | - | 187 W/m² | - |
| 1777811037 | 3.89° C | 88% | 1017.3 hPa | 1.78 mm | - | 157 W/m² | - |
| 1777810734 | 3.33° C | 92% | 1017.4 hPa | 0 mm | - | 157 W/m² | - |
| 1777810430 | 2.78° C | 95% | 1017.3 hPa | 0 mm | - | 138 W/m² | - |
| 1777810126 | 2.22° C | 96% | 1017.3 hPa | 0 mm | - | 124 W/m² | - |
| 1777809824 | 1.67° C | 96% | 1017.4 hPa | 0 mm | - | 114 W/m² | - |
| 1777809522 | 1.11° C | 96% | 1017.1 hPa | 0 mm | - | 75 W/m² | - |
| 1777809219 | 0.56° C | 96% | 1017.2 hPa | 0 mm | - | 58 W/m² | - |
| 1777808917 | 0° C | 96% | 1017.4 hPa | 0 mm | - | 32 W/m² | - |
| 1777808613 | 0° C | 96% | 1017.3 hPa | 0 mm | - | 31 W/m² | - |
| 1777808310 | -0.56° C | 96% | 1017.3 hPa | 0 mm | - | 42 W/m² | - |
| 1777808009 | -0.56° C | 95% | 1017.5 hPa | 0 mm | - | 26 W/m² | - |
| 1777807706 | -1.11° C | 95% | 1017.2 hPa | 0 mm | - | 25 W/m² | - |
* Rain latest hour (hover to see other rain measurements)
** Current wind speed in m/s (hover to see current wind gust speed)